Regional Weather Roundup
Issued by NWS Midland/Odessa, TX

Home | Current Version | Previous Version | Text Only | Print | Product List | Glossary On
Versions: 1 2 3 4 5 6 7 8 9 10 11 12 13 14 15 16 17 18 19 20 21 22 23 24 25 26 27 28 29 30 31 32 33 34 35 36 37 38 39 40 41 42 43 44 45 46 47 48 49 50
000
ASUS44 KMAF 270610
RWRMAF
MIDLAND AREA WEATHER ROUNDUP
NATIONAL WEATHER SERVICE MIDLAND TX
100 AM CDT WED MAY 27 2015

...IN SOUTHWEST TEXAS AND SOUTHEAST NEW MEXICO...

CITY           SKY/WX    TMP DP  RH WIND       PRES   REMARKS
ALPINE         CLEAR     60  51  70 SW7       30.13F
ANDREWS        FAIR      67  64  87 S7        30.02S
ARTESIA        CLEAR     66  34  30 NE5       30.02R
BIG SPRING     CLEAR     74  67  79 SE10      30.02S
CARLSBAD       PTCLDY    67  39  35 S6        29.99R
DRYDEN           N/A     81  80  97 CALM      29.97S
FORT STOCKTON  CLEAR     72  64  76 SE13      30.01S
GUAD PASS      PTCLDY    71  24  17 E9        30.14S
HOBBS          CLEAR     63  41  45 E3        30.04S
MARFA          CLEAR     57  39  51 NW3       30.11S
MIDLAND AIRPK  CLEAR     74  67  77 S9        30.01F
MIDLAND INTL   CLEAR     73  67  81 SE9       30.00S
ODESSA         CLEAR     74  66  76 S13       30.01S
PECOS          CLEAR     73  65  75 E13       29.95F
PRESIDIO       FAIR      77  44  30 MISG      29.93S
SEMINOLE       CLEAR     62  52  70 CALM      30.04R
SNYDER         CLEAR     66  61  82 SE9       30.01R
WINK           CLEAR     75  66  73 SE17      29.96S
$$
...OTHER STATIONS IN TEXAS...

CITY           SKY/WX    TMP DP  RH WIND       PRES   REMARKS
ABILENE        PTCLDY    65  60  84 SE12      30.01F
AMARILLO       MOCLDY    64  57  78 E12       30.04F
AUSTIN         CLOUDY    76  74  93 S7        30.01R
BROWNSVILLE    CLOUDY    81  77  88 SE12      29.96F
CORPUS CHRISTI CLOUDY    80  77  90 SE9       29.96R
DALLAS FTW     TSTM      65  62  90 S28G36    29.93F
DEL RIO        CLOUDY    79  74  84 E12       29.91F
EL PASO        PTCLDY    73  26  17 CALM      30.00S
HOUSTON INT    CLOUDY    78  74  87 SE10      30.02S
LUBBOCK        CLEAR     62  54  74 SE6       30.02R
SAN ANGELO     CLEAR     74  68  81 S6        30.00R
SAN ANTONIO    CLOUDY    78  73  84 SE8       30.02R
WACO           TSTM      64  63  96 N20G33    30.08F FOG
WICHITA FALLS  NOT AVBL
$$
...OTHER LOCATIONS IN NEW MEXICO...

CITY           SKY/WX    TMP DP  RH WIND       PRES   REMARKS
ALAMAGORDO     PTCLDY    66  28  24 SE5       30.03S
ALBUQUERQUE    CLOUDY    64  45  49 E7        30.11F
CANNON AFB     CLEAR     60  50  69 E6        30.06R
CLOVIS         CLEAR     57  50  77 E7        30.03F
HOLLOMAN AFB   PTCLDY    68  34  28 SE6       30.00F
ROSWELL        CLEAR     61  45  55 SE5       30.00R
RUIDOSO        PTCLDY    54  32  43 S7        30.22S
SANTA FE       CLOUDY    56  44  64 CALM      30.18R
TRUTH OR CONSE PTCLDY    69  24  18 W9        30.05S
TUCUMCARI      CLEAR     62  51  67 S6        30.04R
$$


USA.gov is the U.S. government's official web portal to all federal, state and local government web resources and services.